LNI971 WARR-WIDD

Flight info

Callsign LNI971
Flight time 1h 58m
Altitude 36000
Route LASEM M766 CUCUT DCT TAVIP M635 SURGA T23 UGEBO
Aircraft B738/M-SDE2E3FGHIRWXY/LB1

Departure

Time 2026-04-22 00:13
Airport Juanda International Airport (WARR)

Arrival

Time 2026-04-22 02:12
Airport Hang Nadim International Airport (WIDD)
Time Latitude Longitude Altitude Speed Heading
2026-04-22 00:00 -7.37519 112.79061 8 ft 0 kts
2026-04-22 00:03 -7.37520 112.79061 8 ft 1 kts
2026-04-22 00:04 -7.37534 112.79059 8 ft 2 kts
2026-04-22 00:04 -7.37549 112.79056 8 ft 2 kts
2026-04-22 00:04 -7.37564 112.79054 8 ft 2 kts
2026-04-22 00:04 -7.37579 112.79051 8 ft 2 kts
2026-04-22 00:05 -7.37592 112.79049 8 ft 2 kts 14°
2026-04-22 00:05 -7.37605 112.79041 8 ft 2 kts 54°
2026-04-22 00:05 -7.37610 112.79027 8 ft 2 kts 86°
2026-04-22 00:05 -7.37610 112.79019 8 ft 1 kts 104°
2026-04-22 00:06 -7.37609 112.79015 8 ft 0 kts 99°
2026-04-22 00:07 -7.37610 112.79018 8 ft 1 kts 99°
2026-04-22 00:07 -7.37614 112.79041 8 ft 4 kts 99°
2026-04-22 00:08 -7.37622 112.79088 8 ft 8 kts 99°
2026-04-22 00:08 -7.37652 112.79115 8 ft 8 kts 211°
2026-04-22 00:08 -7.37718 112.79089 8 ft 11 kts 190°
2026-04-22 00:08 -7.37813 112.79073 8 ft 15 kts 195°
2026-04-22 00:09 -7.37858 112.78989 8 ft 14 kts 279°
2026-04-22 00:09 -7.37843 112.78894 10 ft 12 kts 279°
2026-04-22 00:09 -7.37827 112.78797 11 ft 15 kts 279°
2026-04-22 00:09 -7.37808 112.78680 11 ft 18 kts 279°
2026-04-22 00:10 -7.37786 112.78539 11 ft 22 kts 280°
2026-04-22 00:10 -7.37759 112.78376 11 ft 25 kts 279°
2026-04-22 00:10 -7.37730 112.78194 11 ft 28 kts 279°
2026-04-22 00:10 -7.37696 112.77995 11 ft 28 kts 278°
2026-04-22 00:11 -7.37665 112.77804 11 ft 27 kts 279°
2026-04-22 00:11 -7.37638 112.77640 11 ft 14 kts 279°
2026-04-22 00:11 -7.37622 112.77547 11 ft 13 kts 279°
2026-04-22 00:11 -7.37610 112.77456 11 ft 12 kts 273°
2026-04-22 00:12 -7.37646 112.77387 11 ft 11 kts 208°
2026-04-22 00:12 -7.37723 112.77371 11 ft 10 kts 188°
2026-04-22 00:12 -7.37776 112.77402 11 ft 9 kts 101°
2026-04-22 00:12 -7.37788 112.77475 11 ft 15 kts 99°
2026-04-22 00:13 -7.37849 112.77851 11 ft 95 kts 99°
2026-04-22 00:13 -7.37998 112.78764 12 ft 165 kts 99°
2026-04-22 00:13 -7.38204 112.80010 430 ft 191 kts 99°
2026-04-22 00:13 -7.38426 112.81328 1300 ft 196 kts 98°
2026-04-22 00:14 -7.38657 112.82699 1990 ft 203 kts 97°
2026-04-22 00:14 -7.38900 112.84140 2498 ft 216 kts 97°
2026-04-22 00:14 -7.39160 112.85686 2910 ft 236 kts 97°
2026-04-22 00:14 -7.39389 112.87363 3530 ft 247 kts 88°
2026-04-22 00:15 -7.38983 112.89068 4106 ft 257 kts 59°
2026-04-22 00:15 -7.37828 112.90407 4857 ft 262 kts 38°
2026-04-22 00:15 -7.36216 112.91324 5644 ft 266 kts 22°
2026-04-22 00:15 -7.34407 112.91696 6396 ft 273 kts
2026-04-22 00:16 -7.32521 112.91439 7159 ft 278 kts 350°
2026-04-22 00:16 -7.30615 112.90990 7914 ft 281 kts 348°
2026-04-22 00:16 -7.28706 112.90542 8636 ft 285 kts 349°
2026-04-22 00:16 -7.26769 112.90125 9366 ft 288 kts 350°
2026-04-22 00:17 -7.24796 112.89729 10081 ft 291 kts 351°
2026-04-22 00:17 -7.22767 112.89338 10573 ft 304 kts 351°
2026-04-22 00:17 -7.20645 112.88932 10976 ft 319 kts 351°
2026-04-22 00:17 -7.18397 112.88460 11343 ft 336 kts 347°
2026-04-22 00:18 -7.16154 112.87600 11661 ft 355 kts 333°
2026-04-22 00:18 -7.14158 112.86034 12041 ft 371 kts 314°
2026-04-22 00:18 -7.12656 112.83903 12605 ft 380 kts 299°
2026-04-22 00:18 -7.11633 112.81448 13216 ft 387 kts 289°
2026-04-22 00:19 -7.10959 112.78787 13904 ft 391 kts 283°
2026-04-22 00:19 -7.10467 112.76115 14535 ft 395 kts 280°
2026-04-22 00:19 -7.10033 112.73365 15174 ft 399 kts 279°
2026-04-22 00:19 -7.09609 112.70607 15837 ft 402 kts 279°
2026-04-22 00:20 -7.09164 112.67814 16447 ft 407 kts 280°
2026-04-22 00:20 -7.08693 112.64996 17058 ft 410 kts 280°
2026-04-22 00:20 -7.08202 112.62160 17633 ft 413 kts 281°
2026-04-22 00:20 -7.07703 112.59339 18184 ft 417 kts 281°
2026-04-22 00:21 -7.07186 112.56455 18779 ft 420 kts 281°
2026-04-22 00:21 -7.06663 112.53558 19350 ft 422 kts 281°
2026-04-22 00:21 -7.06133 112.50626 19900 ft 425 kts 280°
2026-04-22 00:21 -7.05608 112.47722 20426 ft 429 kts 280°
2026-04-22 00:22 -7.05076 112.44778 20965 ft 431 kts 280°
2026-04-22 00:22 -7.04536 112.41784 21511 ft 433 kts 280°
2026-04-22 00:22 -7.04000 112.38811 22020 ft 435 kts 280°
2026-04-22 00:22 -7.03461 112.35823 22479 ft 439 kts 280°
2026-04-22 00:23 -7.02900 112.32767 22978 ft 442 kts 281°
2026-04-22 00:23 -7.02228 112.29746 23456 ft 444 kts 285°
2026-04-22 00:23 -7.01333 112.26792 23905 ft 448 kts 289°
2026-04-22 00:23 -7.00258 112.23821 24373 ft 451 kts 291°
2026-04-22 00:24 -6.99113 112.20902 24807 ft 454 kts 292°
2026-04-22 00:24 -6.97910 112.17933 25242 ft 457 kts 292°
2026-04-22 00:24 -6.96624 112.15021 25686 ft 459 kts 296°
2026-04-22 00:24 -6.95108 112.12210 26076 ft 463 kts 300°
2026-04-22 00:25 -6.93412 112.09425 26497 ft 466 kts 303°
2026-04-22 00:25 -6.91629 112.06672 26893 ft 469 kts 304°
2026-04-22 00:25 -6.89817 112.03949 27255 ft 473 kts 304°
2026-04-22 00:25 -6.87978 112.01210 27660 ft 475 kts 304°
2026-04-22 00:26 -6.86127 111.98453 28096 ft 477 kts 304°
2026-04-22 00:26 -6.84278 111.95689 28477 ft 479 kts 304°
2026-04-22 00:26 -6.82412 111.92886 28862 ft 482 kts 304°
2026-04-22 00:26 -6.80549 111.90075 29262 ft 484 kts 304°
2026-04-22 00:27 -6.78696 111.87268 29860 ft 480 kts 303°
2026-04-22 00:27 -6.76861 111.84482 30492 ft 477 kts 303°
2026-04-22 00:27 -6.75030 111.81695 31021 ft 475 kts 303°
2026-04-22 00:27 -6.73229 111.78950 31526 ft 473 kts 303°
2026-04-22 00:28 -6.71429 111.76205 32001 ft 472 kts 303°
2026-04-22 00:28 -6.69624 111.73453 32533 ft 469 kts 303°
2026-04-22 00:28 -6.67835 111.70724 33063 ft 467 kts 303°
2026-04-22 00:28 -6.66038 111.67983 33592 ft 465 kts 304°
2026-04-22 00:29 -6.64289 111.65315 34109 ft 463 kts 304°
2026-04-22 00:29 -6.62498 111.62585 34622 ft 461 kts 304°
2026-04-22 00:29 -6.60770 111.59937 35095 ft 459 kts 303°
2026-04-22 00:29 -6.59031 111.57210 35523 ft 458 kts 303°
2026-04-22 00:30 -6.57335 111.54508 35949 ft 457 kts 302°
2026-04-22 00:30 -6.53930 111.49042 36002 ft 459 kts 302°
2026-04-22 00:31 -6.50574 111.43657 36003 ft 457 kts 302°
2026-04-22 00:31 -6.47177 111.38221 36006 ft 458 kts 302°
2026-04-22 00:32 -6.43787 111.32813 36003 ft 458 kts 303°
2026-04-22 00:32 -6.40380 111.27387 35994 ft 458 kts 303°
2026-04-22 00:33 -6.36968 111.21954 35991 ft 458 kts 303°
2026-04-22 00:33 -6.33577 111.16569 35986 ft 458 kts 303°
2026-04-22 00:34 -6.29609 111.11557 35984 ft 456 kts 320°
2026-04-22 00:34 -6.27033 111.09726 35987 ft 456 kts 331°
2026-04-22 00:34 -6.24131 111.08381 35987 ft 456 kts 339°
2026-04-22 00:35 -6.18103 111.06338 35981 ft 455 kts 343°
2026-04-22 00:35 -6.11984 111.04489 35979 ft 456 kts 343°
2026-04-22 00:36 -6.05847 111.02657 35979 ft 457 kts 343°
2026-04-22 00:36 -5.99721 111.00806 35979 ft 457 kts 343°
2026-04-22 00:37 -5.93648 110.98952 35986 ft 457 kts 343°
2026-04-22 00:37 -5.87544 110.97078 35995 ft 456 kts 343°
2026-04-22 00:38 -5.81461 110.95205 35998 ft 456 kts 343°
2026-04-22 00:38 -5.75381 110.93332 35998 ft 457 kts 343°
2026-04-22 00:39 -5.69268 110.91448 35998 ft 458 kts 343°
2026-04-22 00:39 -5.63130 110.89557 35998 ft 459 kts 343°
2026-04-22 00:40 -5.57002 110.87670 35999 ft 459 kts 343°
2026-04-22 00:40 -5.50908 110.85794 35998 ft 458 kts 343°
2026-04-22 00:41 -5.44771 110.83905 35998 ft 459 kts 343°
2026-04-22 00:41 -5.38658 110.82024 35998 ft 459 kts 343°
2026-04-22 00:42 -5.32524 110.80136 35999 ft 459 kts 343°
2026-04-22 00:42 -5.26359 110.78240 35999 ft 459 kts 343°
2026-04-22 00:43 -5.20247 110.76360 35999 ft 460 kts 343°
2026-04-22 00:43 -5.14090 110.74468 35999 ft 461 kts 343°
2026-04-22 00:44 -5.07910 110.72567 35998 ft 461 kts 343°
2026-04-22 00:44 -5.01776 110.70682 35999 ft 462 kts 343°
2026-04-22 00:45 -4.95614 110.68787 35999 ft 460 kts 343°
2026-04-22 00:45 -4.89463 110.66897 36000 ft 460 kts 343°
2026-04-22 00:46 -4.83345 110.65017 35999 ft 459 kts 343°
2026-04-22 00:46 -4.77181 110.63124 35998 ft 459 kts 343°
2026-04-22 00:47 -4.71073 110.61248 35999 ft 459 kts 343°
2026-04-22 00:47 -4.64962 110.59373 35999 ft 458 kts 343°
2026-04-22 00:48 -4.58821 110.57488 35999 ft 457 kts 343°
2026-04-22 00:48 -4.52739 110.55621 35999 ft 457 kts 343°
2026-04-22 00:49 -4.46617 110.53741 35997 ft 457 kts 343°
2026-04-22 00:49 -4.40501 110.51865 35994 ft 457 kts 343°
2026-04-22 00:50 -4.34384 110.49989 35990 ft 457 kts 343°
2026-04-22 00:50 -4.28280 110.48117 35990 ft 456 kts 343°
2026-04-22 00:51 -4.22211 110.46256 35993 ft 455 kts 343°
2026-04-22 00:51 -4.16134 110.44392 35996 ft 455 kts 344°
2026-04-22 00:52 -4.10060 110.42531 35999 ft 455 kts 344°
2026-04-22 00:52 -4.03937 110.40655 35998 ft 455 kts 343°
2026-04-22 00:53 -3.98001 110.38427 35997 ft 457 kts 332°
2026-04-22 00:53 -3.95368 110.36678 36000 ft 458 kts 321°
2026-04-22 00:53 -3.93023 110.34476 36002 ft 459 kts 315°
2026-04-22 00:54 -3.88743 110.29703 35999 ft 459 kts 311°
2026-04-22 00:54 -3.84632 110.24819 36000 ft 458 kts 311°
2026-04-22 00:55 -3.80526 110.19933 36000 ft 459 kts 311°
2026-04-22 00:55 -3.74315 110.12626 35999 ft 460 kts 311°
2026-04-22 00:56 -3.70158 110.07770 36000 ft 459 kts 311°
2026-04-22 00:56 -3.65986 110.02908 36000 ft 459 kts 311°
2026-04-22 00:57 -3.61841 109.98080 35999 ft 458 kts 311°
2026-04-22 00:57 -3.57664 109.93218 36000 ft 458 kts 311°
2026-04-22 00:58 -3.53534 109.88412 35997 ft 459 kts 312°
2026-04-22 00:58 -3.49346 109.83538 35998 ft 459 kts 311°
2026-04-22 00:59 -3.45185 109.78696 36000 ft 458 kts 311°
2026-04-22 00:59 -3.41035 109.73867 35998 ft 457 kts 311°
2026-04-22 01:00 -3.36891 109.69046 35998 ft 458 kts 311°
2026-04-22 01:00 -3.32744 109.64223 35999 ft 458 kts 311°
2026-04-22 01:01 -3.28620 109.59426 36010 ft 458 kts 311°
2026-04-22 01:01 -3.24436 109.54561 36015 ft 458 kts 311°
2026-04-22 01:02 -3.20291 109.49742 36015 ft 458 kts 311°
2026-04-22 01:02 -3.16140 109.44916 36017 ft 458 kts 311°
2026-04-22 01:03 -3.12006 109.40112 36019 ft 457 kts 311°
2026-04-22 01:03 -3.07854 109.35285 36017 ft 458 kts 311°
2026-04-22 01:04 -3.03703 109.30463 36016 ft 458 kts 311°
2026-04-22 01:04 -2.99553 109.25641 36019 ft 459 kts 311°
2026-04-22 01:05 -2.95376 109.20789 36019 ft 459 kts 311°
2026-04-22 01:05 -2.91236 109.15980 36019 ft 459 kts 311°
2026-04-22 01:06 -2.87083 109.11159 36019 ft 458 kts 311°
2026-04-22 01:06 -2.82899 109.06319 36019 ft 458 kts 311°
2026-04-22 01:07 -2.78720 109.01488 36019 ft 458 kts 311°
2026-04-22 01:07 -2.74567 108.96687 36019 ft 458 kts 311°
2026-04-22 01:08 -2.70399 108.91869 36019 ft 459 kts 311°
2026-04-22 01:08 -2.66210 108.87028 36019 ft 459 kts 311°
2026-04-22 01:09 -2.62043 108.82210 36019 ft 458 kts 311°
2026-04-22 01:09 -2.57897 108.77418 36018 ft 457 kts 311°
2026-04-22 01:10 -2.53727 108.72599 36013 ft 457 kts 311°
2026-04-22 01:10 -2.49552 108.67774 36008 ft 457 kts 311°
2026-04-22 01:11 -2.45392 108.62958 36003 ft 458 kts 311°
2026-04-22 01:11 -2.41243 108.58145 35999 ft 458 kts 311°
2026-04-22 01:12 -2.37092 108.53328 35999 ft 458 kts 311°
2026-04-22 01:12 -2.32913 108.48481 35998 ft 457 kts 312°
2026-04-22 01:13 -2.28765 108.43672 35999 ft 457 kts 311°
2026-04-22 01:13 -2.24612 108.38856 35999 ft 457 kts 311°
2026-04-22 01:14 -2.20465 108.34049 35999 ft 458 kts 311°
2026-04-22 01:14 -2.16305 108.29227 35999 ft 457 kts 311°
2026-04-22 01:15 -2.12166 108.24428 35999 ft 457 kts 312°
2026-04-22 01:15 -2.08002 108.19601 35999 ft 457 kts 311°
2026-04-22 01:16 -2.03836 108.14775 35999 ft 457 kts 311°
2026-04-22 01:16 -1.99703 108.09984 35999 ft 457 kts 311°
2026-04-22 01:17 -1.95547 108.05164 35999 ft 457 kts 311°
2026-04-22 01:17 -1.91372 108.00321 36004 ft 457 kts 312°
2026-04-22 01:18 -1.87240 107.95529 36010 ft 458 kts 311°
2026-04-22 01:18 -1.83082 107.90706 36018 ft 458 kts 311°
2026-04-22 01:19 -1.78919 107.85878 36018 ft 458 kts 311°
2026-04-22 01:19 -1.74754 107.81049 36019 ft 458 kts 311°
2026-04-22 01:20 -1.70595 107.76229 36019 ft 459 kts 311°
2026-04-22 01:20 -1.66413 107.71381 36018 ft 459 kts 311°
2026-04-22 01:21 -1.62239 107.66544 36019 ft 459 kts 311°
2026-04-22 01:21 -1.58050 107.61689 36018 ft 459 kts 312°
2026-04-22 01:22 -1.53872 107.56847 36020 ft 461 kts 311°
2026-04-22 01:22 -1.49694 107.52007 36019 ft 461 kts 311°
2026-04-22 01:23 -1.45483 107.47127 36019 ft 463 kts 311°
2026-04-22 01:23 -1.41267 107.42242 36020 ft 462 kts 311°
2026-04-22 01:24 -1.37035 107.37340 36019 ft 467 kts 311°
2026-04-22 01:24 -1.32764 107.32455 36019 ft 468 kts 312°
2026-04-22 01:25 -1.28450 107.27599 36020 ft 467 kts 312°
2026-04-22 01:25 -1.24110 107.22726 36018 ft 468 kts 312°
2026-04-22 01:26 -1.19778 107.17855 36010 ft 469 kts 312°
2026-04-22 01:26 -1.15426 107.12956 36005 ft 468 kts 312°
2026-04-22 01:27 -1.11101 107.08082 36000 ft 467 kts 312°
2026-04-22 01:27 -1.06792 107.03224 35999 ft 468 kts 312°
2026-04-22 01:28 -1.02449 106.98328 35998 ft 467 kts 312°
2026-04-22 01:28 -0.98148 106.93479 35999 ft 468 kts 312°
2026-04-22 01:29 -0.93823 106.88603 36000 ft 469 kts 312°
2026-04-22 01:29 -0.89475 106.83701 36000 ft 470 kts 312°
2026-04-22 01:30 -0.85134 106.78807 35997 ft 469 kts 312°
2026-04-22 01:30 -0.80798 106.73918 35999 ft 470 kts 312°
2026-04-22 01:31 -0.76443 106.69009 35998 ft 471 kts 312°
2026-04-22 01:31 -0.72120 106.64136 35998 ft 471 kts 312°
2026-04-22 01:32 -0.67770 106.59231 35998 ft 471 kts 312°
2026-04-22 01:32 -0.63422 106.54332 35999 ft 471 kts 312°
2026-04-22 01:33 -0.58898 106.49609 36006 ft 471 kts 317°
2026-04-22 01:33 -0.54054 106.45262 36009 ft 470 kts 320°
2026-04-22 01:34 -0.49149 106.41021 36007 ft 470 kts 320°
2026-04-22 01:34 -0.44256 106.36769 36005 ft 470 kts 320°
2026-04-22 01:35 -0.39340 106.32457 36005 ft 470 kts 319°
2026-04-22 01:35 -0.34462 106.28146 36009 ft 470 kts 319°
2026-04-22 01:36 -0.29544 106.23785 36013 ft 470 kts 319°
2026-04-22 01:36 -0.24676 106.19461 36019 ft 469 kts 319°
2026-04-22 01:37 -0.19744 106.15080 36020 ft 470 kts 319°
2026-04-22 01:37 -0.14842 106.10724 36019 ft 472 kts 319°
2026-04-22 01:38 -0.09949 106.06377 36021 ft 469 kts 319°
2026-04-22 01:38 -0.05044 106.02019 36020 ft 470 kts 319°
2026-04-22 01:39 -0.00153 105.97672 36019 ft 471 kts 319°
2026-04-22 01:39 0.04738 105.93327 36018 ft 470 kts 319°
2026-04-22 01:40 0.09642 105.88969 36018 ft 471 kts 319°
2026-04-22 01:40 0.14529 105.84627 36019 ft 469 kts 319°
2026-04-22 01:41 0.19406 105.80295 36020 ft 469 kts 319°
2026-04-22 01:41 0.24296 105.75949 36019 ft 469 kts 319°
2026-04-22 01:42 0.29171 105.71619 36018 ft 468 kts 319°
2026-04-22 01:42 0.31572 105.69486 35662 ft 466 kts 319°
2026-04-22 01:42 0.34019 105.67311 35050 ft 464 kts 319°
2026-04-22 01:43 0.36417 105.65183 34340 ft 463 kts 319°
2026-04-22 01:43 0.38807 105.63061 33578 ft 463 kts 319°
2026-04-22 01:43 0.41214 105.60923 32783 ft 464 kts 319°
2026-04-22 01:43 0.43630 105.58777 32033 ft 465 kts 319°
2026-04-22 01:44 0.46053 105.56624 31242 ft 467 kts 319°
2026-04-22 01:44 0.48477 105.54469 30414 ft 469 kts 319°
2026-04-22 01:44 0.50934 105.52286 29564 ft 471 kts 319°
2026-04-22 01:44 0.53346 105.50143 28939 ft 468 kts 319°
2026-04-22 01:45 0.55763 105.47995 28288 ft 466 kts 319°
2026-04-22 01:45 0.58207 105.45824 27617 ft 464 kts 319°
2026-04-22 01:45 0.60509 105.43636 26922 ft 463 kts 314°
2026-04-22 01:45 0.62512 105.41125 26224 ft 463 kts 304°
2026-04-22 01:46 0.64035 105.38313 25508 ft 462 kts 294°
2026-04-22 01:46 0.65134 105.35304 24770 ft 462 kts 288°
2026-04-22 01:46 0.66022 105.32247 24056 ft 461 kts 285°
2026-04-22 01:46 0.66815 105.29148 23360 ft 459 kts 284°
2026-04-22 01:47 0.67561 105.26042 22670 ft 457 kts 283°
2026-04-22 01:47 0.68277 105.22995 21992 ft 455 kts 283°
2026-04-22 01:47 0.68990 105.19952 21319 ft 453 kts 283°
2026-04-22 01:47 0.69716 105.16879 20624 ft 451 kts 283°
2026-04-22 01:48 0.70442 105.13837 19927 ft 449 kts 284°
2026-04-22 01:48 0.71165 105.10842 19232 ft 447 kts 284°
2026-04-22 01:48 0.71897 105.07828 18571 ft 443 kts 284°
2026-04-22 01:48 0.72613 105.04896 17934 ft 440 kts 284°
2026-04-22 01:49 0.73335 105.01950 17261 ft 436 kts 284°
2026-04-22 01:49 0.74055 104.99019 16546 ft 431 kts 284°
2026-04-22 01:49 0.74594 104.96131 15868 ft 412 kts 277°
2026-04-22 01:49 0.74624 104.93370 15278 ft 394 kts 262°
2026-04-22 01:50 0.73771 104.90834 15018 ft 378 kts 240°
2026-04-22 01:50 0.72182 104.88761 15001 ft 378 kts 225°
2026-04-22 01:50 0.70174 104.87086 15000 ft 379 kts 217°
2026-04-22 01:50 0.68015 104.85544 14995 ft 379 kts 215°
2026-04-22 01:51 0.65815 104.84049 14998 ft 379 kts 214°
2026-04-22 01:51 0.63648 104.82601 15004 ft 379 kts 214°
2026-04-22 01:51 0.61512 104.81000 14990 ft 381 kts 223°
2026-04-22 01:51 0.59870 104.78965 14992 ft 375 kts 243°
2026-04-22 01:52 0.59065 104.76520 15001 ft 375 kts 262°
2026-04-22 01:52 0.58847 104.73911 14974 ft 376 kts 267°
2026-04-22 01:52 0.58721 104.71319 14944 ft 373 kts 268°
2026-04-22 01:52 0.58594 104.68719 14945 ft 374 kts 268°
2026-04-22 01:53 0.58453 104.66112 14945 ft 375 kts 267°
2026-04-22 01:53 0.58297 104.63541 14945 ft 375 kts 267°
2026-04-22 01:53 0.58125 104.60912 14946 ft 376 kts 267°
2026-04-22 01:53 0.57947 104.58324 14945 ft 376 kts 266°
2026-04-22 01:54 0.57763 104.55698 14945 ft 376 kts 266°
2026-04-22 01:54 0.57581 104.53123 14945 ft 375 kts 266°
2026-04-22 01:54 0.57398 104.50522 14946 ft 376 kts 266°
2026-04-22 01:54 0.57214 104.47894 14948 ft 377 kts 266°
2026-04-22 01:55 0.57033 104.45309 14949 ft 376 kts 266°
2026-04-22 01:55 0.56851 104.42700 14949 ft 377 kts 266°
2026-04-22 01:55 0.56668 104.40072 14950 ft 376 kts 266°
2026-04-22 01:55 0.56488 104.37489 14881 ft 374 kts 266°
2026-04-22 01:56 0.56306 104.34891 14325 ft 374 kts 266°
2026-04-22 01:56 0.56126 104.32314 13730 ft 374 kts 266°
2026-04-22 01:56 0.55945 104.29730 13133 ft 373 kts 266°
2026-04-22 01:56 0.55766 104.27172 12532 ft 369 kts 266°
2026-04-22 01:57 0.55591 104.24671 12002 ft 353 kts 266°
2026-04-22 01:57 0.55512 104.22259 11429 ft 341 kts 273°
2026-04-22 01:57 0.55911 104.19995 10934 ft 335 kts 291°
2026-04-22 01:57 0.57124 104.17993 10624 ft 334 kts 312°
2026-04-22 01:58 0.58895 104.16537 10469 ft 324 kts 327°
2026-04-22 01:58 0.60871 104.15533 10336 ft 313 kts 339°
2026-04-22 01:58 0.62947 104.14956 10204 ft 302 kts 347°
2026-04-22 01:58 0.64991 104.14603 9971 ft 293 kts 350°
2026-04-22 01:59 0.66982 104.14304 9590 ft 284 kts 349°
2026-04-22 01:59 0.68893 104.14002 9236 ft 278 kts 349°
2026-04-22 01:59 0.70830 104.13682 8885 ft 279 kts 349°
2026-04-22 01:59 0.72742 104.13361 8536 ft 278 kts 349°
2026-04-22 02:00 0.74624 104.13041 8198 ft 276 kts 349°
2026-04-22 02:00 0.76542 104.12711 7847 ft 275 kts 349°
2026-04-22 02:00 0.78443 104.12492 7498 ft 274 kts 359°
2026-04-22 02:00 0.80325 104.12751 7176 ft 275 kts 14°
2026-04-22 02:01 0.82176 104.13323 6808 ft 278 kts 18°
2026-04-22 02:01 0.84010 104.13937 6461 ft 277 kts 18°
2026-04-22 02:01 0.85848 104.14523 6118 ft 277 kts 17°
2026-04-22 02:01 0.87701 104.15081 5764 ft 277 kts 17°
2026-04-22 02:02 0.89567 104.15625 5414 ft 277 kts 17°
2026-04-22 02:02 0.91410 104.16155 5060 ft 277 kts 17°
2026-04-22 02:02 0.93257 104.16686 4955 ft 266 kts 16°
2026-04-22 02:02 0.94978 104.17181 4957 ft 261 kts 17°
2026-04-22 02:03 0.96712 104.17683 4956 ft 261 kts 17°
2026-04-22 02:03 0.98463 104.18188 4956 ft 262 kts 16°
2026-04-22 02:03 1.00219 104.18695 4955 ft 260 kts 17°
2026-04-22 02:03 1.01943 104.19193 4957 ft 261 kts 16°
2026-04-22 02:04 1.05354 104.20429 4958 ft 262 kts 32°
2026-04-22 02:04 1.06789 104.21542 4964 ft 261 kts 41°
2026-04-22 02:04 1.08136 104.22777 4961 ft 263 kts 43°
2026-04-22 02:05 1.09498 104.24020 4960 ft 261 kts 42°
2026-04-22 02:05 1.10863 104.25223 4695 ft 265 kts 41°
2026-04-22 02:05 1.12257 104.26421 4348 ft 266 kts 41°
2026-04-22 02:05 1.13679 104.27631 4031 ft 265 kts 40°
2026-04-22 02:06 1.15055 104.28800 3898 ft 256 kts 40°
2026-04-22 02:06 1.16376 104.29926 3825 ft 245 kts 40°
2026-04-22 02:06 1.17738 104.30931 3744 ft 236 kts 29°
2026-04-22 02:06 1.19269 104.31358 3658 ft 228 kts 358°
2026-04-22 02:07 1.20774 104.30917 3439 ft 228 kts 329°
2026-04-22 02:07 1.21957 104.29881 3190 ft 230 kts 313°
2026-04-22 02:07 1.23023 104.28654 2921 ft 231 kts 313°
2026-04-22 02:07 1.24088 104.27450 2660 ft 231 kts 313°
2026-04-22 02:08 1.25035 104.26183 2510 ft 226 kts 299°
2026-04-22 02:08 1.25378 104.24702 2461 ft 214 kts 265°
2026-04-22 02:08 1.24881 104.23350 2324 ft 206 kts 236°
2026-04-22 02:08 1.23950 104.22315 2185 ft 198 kts 222°
2026-04-22 02:09 1.22914 104.21408 2045 ft 192 kts 220°
2026-04-22 02:09 1.21926 104.20554 1939 ft 181 kts 221°
2026-04-22 02:09 1.21017 104.19757 1820 ft 167 kts 221°
2026-04-22 02:09 1.20158 104.18997 1700 ft 162 kts 221°
2026-04-22 02:10 1.19318 104.18255 1660 ft 160 kts 221°
2026-04-22 02:10 1.18479 104.17515 1655 ft 160 kts 221°
2026-04-22 02:10 1.17600 104.16751 1413 ft 175 kts 220°
2026-04-22 02:10 1.16670 104.15937 1165 ft 177 kts 221°
2026-04-22 02:11 1.15738 104.15095 772 ft 181 kts 222°
2026-04-22 02:11 1.14827 104.14283 489 ft 165 kts 221°
2026-04-22 02:11 1.13994 104.13559 270 ft 153 kts 221°
2026-04-22 02:11 1.13222 104.12871 130 ft 141 kts 222°
2026-04-22 02:12 1.12571 104.12294 127 ft 101 kts 220°
2026-04-22 02:12 1.12220 104.11987 127 ft 38 kts 221°
2026-04-22 02:12 1.12041 104.11832 127 ft 27 kts 222°
2026-04-22 02:12 1.11975 104.11750 127 ft 11 kts 261°
2026-04-22 02:13 1.12012 104.11681 127 ft 11 kts 313°
2026-04-22 02:13 1.12063 104.11625 127 ft 10 kts 310°
2026-04-22 02:13 1.12124 104.11593 127 ft 10 kts 17°
2026-04-22 02:13 1.12181 104.11635 127 ft 10 kts 40°
2026-04-22 02:14 1.12238 104.11627 127 ft 8 kts 313°
2026-04-22 02:14 1.12262 104.11601 127 ft 0 kts 310°